IZ1UQG-N2 Weather Reports


time (UTC)temp
F
wind
direction
speed
knots
gust
knots
rain 1hr
in
rain 24hr
in
rain mn
in
humidity
%
barometer
mb
20260506220444 53 329 0.9 2.6 0.00 1.51 0.00 90 1009.6
20260506220344 53 324 0.9 2.6 0.00 1.51 0.00 90 1009.7
20260506220245 53 319 0.9 2.6 0.00 1.51 0.00 91 1009.6
20260506220145 53 308 0.0 1.7 0.00 1.51 0.00 91 1009.6
20260506220045 53 298 0.0 1.7 0.00 1.51 0.00 90 1009.6
20260506215944 53 287 0.0 0.9 0.00 1.51 1.51 90 1009.6
20260506215844 53 276 0.0 1.7 0.00 1.51 1.51 90 1009.5
20260506215744 53 272 0.0 1.7 0.00 1.51 1.51 91 1009.6
20260506215645 53 276 0.0 1.7 0.00 1.51 1.51 91 1009.6
20260506215545 53 283 0.0 1.7 0.00 1.51 1.51 91 1009.7
20260506215445 53 290 0.0 1.7 0.00 1.51 1.51 91 1009.7
20260506215344 53 298 0.9 1.7 0.00 1.51 1.51 91 1009.7
20260506215244 53 301 0.9 1.7 0.00 1.51 1.51 91 1009.7
20260506215144 53 305 0.9 1.7 0.00 1.51 1.51 91 1009.6
20260506215045 53 311 0.9 1.7 0.00 1.51 1.51 91 1009.7
20260506214945 53 315 0.9 1.7 0.00 1.51 1.51 91 1009.7
20260506214845 53 321 0.9 1.7 0.00 1.51 1.51 91 1009.7
20260506214744 53 326 0.9 1.7 0.00 1.51 1.51 91 1009.6
20260506214645 53 326 0.9 1.7 0.00 1.51 1.51 91 1009.6
20260506214545 53 327 0.9 1.7 0.00 1.51 1.51 91 1009.6
20260506214445 53 327 0.9 1.7 0.00 1.51 1.51 91 1009.6
20260506214345 53 330 0.9 1.7 0.00 1.51 1.51 91 1009.5
20260506214245 53 335 0.9 1.7 0.00 1.51 1.51 91 1009.6
20260506214144 53 336 0.9 1.7 0.00 1.51 1.51 91 1009.5
20260506214044 53 337 0.9 1.7 0.00 1.51 1.51 91 1009.6
20260506213945 53 338 0.9 1.7 0.00 1.51 1.51 91 1009.5
20260506213845 53 340 0.9 1.7 0.00 1.51 1.51 91 1009.5
20260506213745 53 345 0.0 1.7 0.00 1.51 1.51 91 1009.5
20260506213645 53 348 0.9 1.7 0.00 1.51 1.51 91 1009.5
20260506213545 53 351 0.9 1.7 0.00 1.51 1.51 91 1009.5
20260506213445 53 353 0.9 2.6 0.00 1.51 1.51 90 1009.5
20260506213346 53 347 0.9 3.5 0.00 1.51 1.51 91 1009.6
20260506213244 53 346 0.9 3.5 0.00 1.51 1.51 91 1009.6
20260506213145 53 345 0.9 3.5 0.00 1.51 1.51 91 1009.6
20260506213045 53 345 1.7 3.5 0.00 1.51 1.51 91 1009.6
20260506212944 53 344 1.7 3.5 0.00 1.51 1.51 91 1009.5
20260506212844 53 342 1.7 3.5 0.00 1.51 1.51 91 1009.6
20260506212744 53 339 1.7 3.5 0.00 1.51 1.51 91 1009.6
20260506212644 53 337 2.6 3.5 0.00 1.51 1.51 91 1009.6
20260506212544 53 336 2.6 3.5 0.00 1.51 1.51 90 1009.5
20260506212444 53 336 1.7 3.5 0.00 1.51 1.51 90 1009.5
20260506212346 53 337 1.7 3.5 0.00 1.51 1.51 90 1009.6
20260506212244 53 336 1.7 3.5 0.00 1.51 1.51 90 1009.6
20260506212144 53 335 1.7 3.5 0.00 1.51 1.51 90 1009.6
20260506212044 53 335 0.9 3.5 0.00 1.51 1.51 90 1009.7
20260506211946 53 333 0.9 3.5 0.00 1.51 1.51 90 1009.5
20260506211845 53 332 0.9 3.5 0.00 1.51 1.51 90 1009.5
20260506211744 53 332 0.9 2.6 0.00 1.51 1.51 90 1009.5
20260506211646 54 331 0.9 2.6 0.00 1.51 1.51 90 1009.5
20260506211546 54 327 0.9 2.6 0.00 1.51 1.51 90 1009.5
20260506211445 53 324 0.9 2.6 0.00 1.51 1.51 91 1009.5
20260506211345 53 322 0.9 2.6 0.00 1.51 1.51 90 1009.6
20260506211245 53 321 0.9 2.6 0.00 1.51 1.51 90 1009.6
20260506211145 53 320 0.9 2.6 0.00 1.51 1.51 90 1009.5
20260506211045 53 318 0.9 2.6 0.00 1.51 1.51 90 1009.5
20260506210945 53 320 0.9 2.6 0.00 1.51 1.51 90 1009.5
20260506210845 53 323 0.9 2.6 0.00 1.51 1.51 90 1009.6
20260506210745 53 329 0.9 2.6 0.00 1.51 1.51 90 1009.5
20260506210645 54 339 0.9 3.5 0.00 1.51 1.51 90 1009.5
20260506210545 54 349 0.9 3.5 0.00 1.51 1.51 91 1009.6
20260506210445 54 354 0.9 3.5 0.00 1.51 1.51 91 1009.6
20260506210344 54 356 0.9 5.2 0.00 1.51 1.51 91 1009.6
20260506210244 54 356 1.7 6.1 0.00 1.51 1.51 91 1009.6
20260506210145 54 355 1.7 6.1 0.00 1.51 1.51 90 1009.6
20260506210045 54 353 2.6 6.1 0.00 1.51 1.51 90 1009.6
20260506205945 54 353 2.6 7.0 0.00 1.51 1.51 90 1009.5
20260506205845 54 353 3.5 7.0 0.00 1.51 1.51 90 1009.6
20260506205745 54 353 3.5 7.0 0.00 1.51 1.51 90 1009.7
20260506205644 54 352 4.3 7.0 0.00 1.51 1.51 90 1009.7
20260506205544 54 352 4.3 7.0 0.00 1.51 1.51 90 1009.7
20260506205444 54 352 4.3 7.8 0.00 1.51 1.51 90 1009.7
20260506205346 54 354 4.3 7.8 0.00 1.51 1.51 90 1009.7
20260506205245 54 354 4.3 7.8 0.00 1.51 1.51 91 1009.7
20260506205145 54 354 4.3 7.8 0.00 1.51 1.51 90 1009.7
20260506205044 54 356 4.3 7.8 0.00 1.51 1.51 90 1009.7
20260506204944 54 356 4.3 7.8 0.00 1.51 1.51 90 1009.7
20260506204844 54 356 4.3 7.8 0.00 1.51 1.51 90 1009.6
20260506204745 54 356 3.5 7.8 0.00 1.51 1.51 90 1009.7
20260506204645 54 356 3.5 7.8 0.00 1.51 1.51 90 1009.6
20260506204545 54 357 3.5 7.8 0.00 1.51 1.51 90 1009.6
20260506204444 54 357 2.6 7.0 0.00 1.51 1.51 90 1009.6
20260506204344 54 355 2.6 7.0 0.00 1.51 1.51 90 1009.6
20260506204244 54 353 2.6 7.0 0.00 1.51 1.51 90 1009.7
20260506204145 54 350 1.7 5.2 0.00 1.51 1.51 90 1009.7
20260506204045 54 346 1.7 5.2 0.00 1.51 1.51 90 1009.7
20260506203945 54 342 1.7 5.2 0.00 1.51 1.51 90 1009.7
20260506203845 54 342 0.9 5.2 0.00 1.51 1.51 90 1009.6
20260506203745 54 337 0.9 3.5 0.00 1.51 1.51 90 1009.7
20260506203646 54 330 0.9 2.6 0.00 1.51 1.51 90 1009.6
20260506203545 54 321 0.9 1.7 0.00 1.51 1.51 90 1009.6
20260506203445 54 319 0.0 0.9 0.00 1.51 1.51 90 1009.6
20260506203345 54 322 0.0 0.9 0.00 1.51 1.51 90 1009.4
20260506203244 54 331 0.0 0.9 0.00 1.51 1.51 90 1009.5
20260506203144 54 15 0.0 0.9 0.00 1.51 1.51 90 1009.4
20260506203046 54 94 0.0 0.9 0.00 1.51 1.51 90 1009.5
20260506202945 54 118 0.0 0.9 0.00 1.51 1.51 90 1009.4
20260506202845 54 124 0.0 0.9 0.00 1.51 1.51 90 1009.3
20260506202745 54 130 0.0 0.9 0.00 1.51 1.51 90 1009.4
20260506202644 54 131 0.0 0.9 0.00 1.51 1.51 90 1009.4
20260506202544 54 132 0.0 0.9 0.00 1.51 1.51 90 1009.4
20260506202444 54 133 0.0 0.9 0.00 1.51 1.51 90 1009.4
20260506202344 54 133 0.0 0.9 0.00 1.51 1.51 90 1009.4
20260506202246 54 136 0.0 1.7 0.00 1.51 1.51 90 1009.3
20260506202145 54 141 0.0 1.7 0.00 1.51 1.51 90 1009.3
20260506202045 54 144 0.0 1.7 0.00 1.51 1.51 89 1009.3
20260506201945 54 151 0.0 1.7 0.00 1.51 1.51 89 1009.3
20260506201846 54 152 0.0 1.7 0.00 1.51 1.51 90 1009.2
20260506201745 54 159 0.0 1.7 0.00 1.51 1.51 89 1009.2
20260506201645 54 162 0.0 1.7 0.00 1.51 1.51 90 1009.2
20260506201545 54 168 0.0 1.7 0.00 1.51 1.51 90 1009.1
20260506201444 54 170 0.0 1.7 0.00 1.51 1.51 90 1009.1
20260506201344 54 172 0.0 1.7 0.00 1.51 1.51 89 1009.2
20260506201244 54 211 0.0 0.9 0.01 1.51 1.51 90 1009.2
20260506201145 54 227 0.0 0.9 0.01 1.51 1.51 90 1009.1
20260506201045 54 227 0.0 0.9 0.01 1.51 1.51 89 1009.1
20260506200945 54 273 0.0 0.0 0.01 1.55 1.51 90 1009.1
20260506200845 54 276 0.0 0.0 0.01 1.55 1.51 90 1009.1
20260506200745 54 276 0.0 0.0 0.01 1.55 1.51 90 1009.1
20260506200644 54 276 0.0 0.0 0.01 1.55 1.51 90 1009.1
20260506200545 54 276 0.0 0.9 0.01 1.55 1.51 90 1009.1
20260506200445 54 276 0.0 0.9 0.01 1.55 1.51 90 1009.1
20260506200345 54 279 0.0 0.9 0.02 1.55 1.51 89 1009.0
20260506200244 54 280 0.0 0.9 0.02 1.55 1.51 89 1009.1
20260506200146 54 285 0.0 1.7 0.02 1.55 1.51 89 1009.0
20260506200046 54 286 0.0 1.7 0.02 1.55 1.51 89 1009.0
20260506195944 54 289 0.0 1.7 0.02 1.55 1.51 89 1009.0
20260506195844 54 296 0.9 2.6 0.03 1.55 1.51 90 1009.0
20260506195744 54 300 0.9 2.6 0.03 1.55 1.51 89 1009.0
20260506195645 54 304 0.9 2.6 0.03 1.55 1.51 89 1008.9
20260506195545 54 310 0.9 2.6 0.03 1.55 1.51 89 1008.9
20260506195445 54 313 0.9 2.6 0.03 1.55 1.51 89 1008.9
20260506195345 54 316 0.9 2.6 0.03 1.55 1.51 89 1008.9
20260506195245 54 318 0.9 2.6 0.03 1.55 1.51 89 1009.0
20260506195145 54 321 0.9 2.6 0.03 1.55 1.51 89 1008.9
20260506195044 54 324 0.9 2.6 0.04 1.55 1.51 89 1008.9
20260506194945 54 326 0.9 2.6 0.04 1.55 1.51 90 1008.8
20260506194845 54 327 0.9 1.7 0.04 1.55 1.51 90 1008.9
20260506194745 54 330 0.9 1.7 0.04 1.55 1.51 90 1008.7
20260506194645 54 331 0.9 1.7 0.05 1.55 1.51 90 1008.8
20260506194545 54 335 0.9 1.7 0.05 1.55 1.51 90 1008.8
20260506194445 54 336 0.9 1.7 0.05 1.55 1.51 90 1008.8
20260506194345 54 337 0.9 1.7 0.05 1.55 1.51 90 1008.8
20260506194246 54 339 0.9 1.7 0.05 1.55 1.51 89 1008.8
20260506194145 54 342 0.9 1.7 0.06 1.55 1.51 89 1008.8
20260506194045 54 344 0.9 1.7 0.06 1.55 1.51 89 1008.7
20260506193944 54 348 0.9 1.7 0.06 1.55 1.51 89 1008.8
20260506193844 54 348 0.9 1.7 0.06 1.55 1.51 89 1008.8
20260506193744 54 349 0.9 1.7 0.06 1.55 1.51 89 1008.8
20260506193644 54 350 0.9 1.7 0.07 1.55 1.51 89 1008.7
20260506193545 54 349 0.0 1.7 0.07 1.55 1.51 89 1008.8
20260506193445 54 351 0.0 1.7 0.07 1.55 1.51 89 1008.7
20260506193344 54 354 0.0 1.7 0.07 1.55 1.51 89 1008.7
20260506193246 54 358 0.0 1.7 0.08 1.55 1.51 89 1008.6
20260506193145 54 1 0.0 1.7 0.09 1.55 1.51 89 1008.7
20260506193045 54 350 0.0 0.9 0.10 1.55 1.51 89 1008.7
20260506192945 55 345 0.0 0.9 0.09 1.55 1.51 89 1008.7
20260506192844 55 341 0.0 0.9 0.10 1.55 1.51 88 1008.7
20260506192746 55 339 0.0 0.9 0.10 1.55 1.51 89 1008.7
20260506192644 55 339 0.0 1.7 0.11 1.55 1.51 89 1008.7
20260506192545 55 338 0.0 1.7 0.11 1.55 1.51 89 1008.5
20260506192444 55 337 0.0 1.7 0.11 1.55 1.51 88 1008.6
20260506192344 55 336 0.9 1.7 0.11 1.55 1.51 88 1008.6
20260506192245 55 336 0.9 1.7 0.11 1.55 1.51 88 1008.5
20260506192144 55 334 0.9 1.7 0.11 1.55 1.51 88 1008.5
20260506192044 55 335 0.9 1.7 0.11 1.55 1.51 88 1008.4
20260506191944 55 335 0.9 1.7 0.11 1.55 1.51 88 1008.3
20260506191844 55 333 0.9 1.7 0.11 1.55 1.51 88 1008.4
20260506191743 55 330 0.9 1.7 0.11 1.55 1.51 88 1008.4
20260506191449 55 319 0.9 1.7 0.11 1.55 1.51 87 1008.4
20260506191348 55 308 0.9 1.7 0.11 1.55 1.51 87 1008.3
20260506191247 55 288 0.9 2.6 0.11 1.54 1.50 87 1008.4
20260506191146 55 270 0.9 2.6 0.11 1.54 1.50 87 1008.4
20260506191048 55 256 0.9 2.6 0.11 1.54 1.50 86 1008.4
20260506190948 55 240 1.7 5.2 0.11 1.54 1.50 86 1008.3
20260506190846 55 227 1.7 5.2 0.11 1.54 1.50 86 1008.3
20260506190748 55 217 1.7 5.2 0.11 1.54 1.50 86 1008.3
20260506190647 55 211 1.7 5.2 0.11 1.54 1.50 85 1008.4
20260506190547 55 208 2.6 5.2 0.11 1.54 1.50 85 1008.3
20260506190447 55 206 2.6 5.2 0.10 1.53 1.49 85 1008.2
20260506190349 55 204 2.6 5.2 0.10 1.53 1.49 85 1008.2
20260506190247 55 203 3.5 6.1 0.10 1.53 1.49 84 1008.3
20260506190147 55 203 3.5 6.1 0.10 1.53 1.49 84 1008.2
20260506190047 55 202 3.5 6.1 0.10 1.53 1.49 84 1008.2
20260506185946 55 200 3.5 6.1 0.09 1.52 1.48 84 1008.2
20260506185848 55 200 3.5 6.1 0.09 1.52 1.48 84 1008.1
20260506185748 55 199 3.5 6.1 0.09 1.52 1.48 84 1008.1
20260506185647 55 198 3.5 6.1 0.08 1.51 1.48 84 1008.2
20260506185547 55 198 3.5 6.1 0.08 1.51 1.48 83 1008.2
20260506185447 55 198 2.6 6.1 0.08 1.51 1.48 83 1008.1
20260506185347 55 199 2.6 6.1 0.08 1.51 1.48 83 1008.0
20260506185248 56 197 2.6 5.2 0.08 1.51 1.48 82 1008.0
20260506185147 56 197 1.7 5.2 0.08 1.51 1.48 82 1008.1
20260506185047 56 196 1.7 5.2 0.07 1.51 1.47 82 1008.1
20260506184949 56 197 0.9 3.5 0.07 1.51 1.47 82 1008.0
20260506184848 56 197 0.9 2.6 0.07 1.51 1.47 82 1008.0
20260506184746 56 199 0.9 2.6 0.07 1.51 1.47 82 1008.0
20260506184647 56 203 0.0 2.6 0.07 1.50 1.46 81 1007.8
20260506184547 56 213 0.0 2.6 0.07 1.50 1.46 81 1007.7
20260506184447 56 217 0.0 2.6 0.07 1.50 1.46 81 1007.7
20260506184348 57 225 0.0 2.6 0.07 1.50 1.46 81 1007.7
20260506184248 57 229 0.0 2.6 0.07 1.50 1.46 81 1007.7
20260506184147 57 234 0.0 2.6 0.06 1.49 1.45 80 1007.8
20260506184047 57 239 0.0 2.6 0.06 1.49 1.45 79 1007.8
20260506183947 57 235 0.0 2.6 0.06 1.49 1.45 79 1007.6
20260506183847 57 227 0.0 2.6 0.06 1.49 1.45 79 1007.7
20260506183747 57 215 0.9 2.6 0.05 1.48 1.44 78 1007.7
20260506183647 57 209 0.9 2.6 0.05 1.48 1.44 78 1007.6
20260506183546 57 206 0.9 1.7 0.04 1.48 1.44 77 1007.4
20260506183448 58 209 0.9 1.7 0.04 1.48 1.44 77 1007.5
20260506183348 58 211 0.9 1.7 0.03 1.47 1.43 77 1007.5
20260506183248 58 214 0.9 1.7 0.03 1.47 1.43 76 1007.4
20260506183147 58 220 0.9 1.7 0.03 1.46 1.42 76 1007.3
20260506183047 58 222 0.9 1.7 0.02 1.45 1.41 76 1007.3
20260506182946 58 236 0.9 2.6 0.02 1.45 1.41 75 1007.4
20260506182848 58 245 0.9 2.6 0.01 1.44 1.40 75 1007.2
20260506182748 58 266 0.9 2.6 0.00 1.44 1.40 75 1007.3
20260506182646 58 281 0.9 2.6 0.00 1.44 1.40 74 1007.3
20260506182548 58 286 0.9 2.6 0.00 1.44 1.40 74 1007.2
20260506182448 58 287 0.9 2.6 0.00 1.44 1.40 74 1007.2
20260506182346 58 280 0.9 2.6 0.00 1.43 1.39 75 1007.2
20260506182247 58 284 0.9 2.6 0.00 1.43 1.39 75 1007.1
20260506182147 58 300 0.9 2.6 0.00 1.43 1.39 75 1007.1
20260506182047 58 315 0.9 2.6 0.00 1.43 1.39 75 1007.1
20260506181951 58 323 0.9 2.6 0.00 1.43 1.39 75 1007.2
20260506181852 58 326 0.9 3.5 0.00 1.43 1.39 75 1007.1
20260506181750 58 323 0.9 3.5 0.00 1.43 1.39 74 1007.1
20260506181651 58 324 1.7 6.1 0.00 1.43 1.39 74 1007.1
20260506181551 58 322 1.7 6.1 0.00 1.43 1.39 74 1007.1
20260506181451 58 324 1.7 6.1 0.00 1.43 1.39 74 1007.2
20260506181352 58 330 1.7 6.1 0.00 1.43 1.39 74 1007.2
20260506181252 58 331 1.7 6.1 0.00 1.43 1.39 74 1007.1
20260506181151 58 328 1.7 6.1 0.00 1.43 1.39 73 1007.1
20260506181051 58 325 2.6 6.1 0.00 1.43 1.39 73 1007.1
20260506180951 58 325 2.6 6.1 0.00 1.43 1.39 73 1007.1
20260506180850 58 326 2.6 6.1 0.00 1.43 1.39 73 1007.1
20260506180752 58 327 1.7 6.1 0.00 1.43 1.39 73 1007.1
20260506180651 58 334 1.7 5.2 0.00 1.43 1.39 73 1007.1
20260506180551 58 337 1.7 5.2 0.00 1.43 1.39 73 1007.1
20260506180451 58 340 1.7 6.1 0.00 1.43 1.39 73 1007.0
20260506180352 58 350 1.7 6.1 0.00 1.43 1.39 73 1007.1
20260506180250 58 13 1.7 6.1 0.00 1.43 1.39 72 1007.1
20260506180152 58 42 1.7 6.1 0.00 1.43 1.39 72 1007.1
20260506180052 58 61 1.7 6.1 0.00 1.43 1.39 72 1007.0
20260506175950 58 73 1.7 6.1 0.00 1.43 1.39 72 1007.0
20260506175851 58 77 1.7 6.1 0.00 1.43 1.39 72 1006.9
20260506175751 58 87 1.7 6.1 0.00 1.43 1.39 72 1006.9
20260506175650 58 92 1.7 6.1 0.00 1.43 1.39 72 1006.9
20260506175550 58 95 1.7 6.1 0.00 1.43 1.39 72 1006.8
20260506175450 58 89 1.7 7.0 0.00 1.43 1.39 72 1006.8
20260506175350 58 85 2.6 7.0 0.00 1.43 1.39 72 1006.8
20260506175251 58 81 2.6 7.0 0.00 1.43 1.39 72 1006.8
20260506175151 58 72 2.6 7.0 0.00 1.43 1.39 72 1006.7
20260506175049 58 63 2.6 7.0 0.00 1.43 1.39 72 1006.7
20260506174951 58 63 2.6 7.0 0.00 1.47 1.39 72 1006.7
20260506174851 58 62 2.6 7.0 0.00 1.47 1.39 72 1006.8
20260506174751 58 56 2.6 7.0 0.00 1.47 1.39 72 1006.7
20260506174652 58 50 2.6 7.0 0.00 1.47 1.39 72 1006.7
20260506174552 58 45 2.6 7.0 0.00 1.47 1.39 71 1006.6
20260506174449 58 37 2.6 7.0 0.00 1.47 1.39 71 1006.6
20260506174351 58 27 2.6 5.2 0.00 1.47 1.39 71 1006.6
20260506174251 58 22 2.6 5.2 0.00 1.47 1.39 72 1006.4
20260506174150 58 17 2.6 5.2 0.00 1.47 1.39 72 1006.4
20260506174052 58 15 2.6 5.2 0.00 1.47 1.39 73 1006.4
20260506173952 58 8 2.6 5.2 0.00 1.47 1.39 73 1006.3
20260506173851 58 357 2.6 5.2 0.00 1.47 1.39 73 1006.3
20260506173751 58 351 2.6 5.2 0.00 1.47 1.39 73 1006.2
20260506173651 58 343 2.6 6.1 0.00 1.47 1.39 73 1006.3
20260506173550 58 340 3.5 6.1 0.00 1.47 1.39 73 1006.2
20260506173450 58 336 3.5 6.1 0.00 1.47 1.39 73 1006.3
20260506173352 58 334 3.5 6.1 0.00 1.47 1.39 73 1006.3
20260506173249 58 332 3.5 6.1 0.00 1.47 1.39 73 1006.2
20260506173151 58 330 3.5 6.1 0.00 1.47 1.39 73 1006.3
20260506173051 58 328 3.5 6.1 0.00 1.47 1.39 73 1006.4
20260506172951 58 328 4.3 7.8 0.00 1.47 1.39 73 1006.3
20260506172851 58 329 4.3 7.8 0.00 1.47 1.39 73 1006.3
20260506172751 58 328 4.3 7.8 0.00 1.47 1.39 73 1006.3
20260506172650 58 328 4.3 7.8 0.00 1.47 1.39 73 1006.2
20260506172552 58 329 4.3 7.8 0.00 1.47 1.39 73 1006.3
20260506172452 58 331 4.3 7.8 0.00 1.47 1.39 74 1006.3
20260506172351 58 330 4.3 7.8 0.00 1.47 1.39 73 1006.3
20260506172252 58 329 4.3 7.8 0.00 1.47 1.39 74 1006.2
20260506172152 58 329 4.3 7.8 0.00 1.47 1.39 73 1006.3
20260506172051 58 328 4.3 7.8 0.00 1.47 1.39 73 1006.3
20260506171951 58 328 4.3 7.0 0.00 1.47 1.39 73 1006.4
20260506171852 58 328 4.3 7.0 0.00 1.47 1.39 73 1006.4
20260506171752 58 329 4.3 7.0 0.00 1.47 1.39 74 1006.4
20260506171652 58 329 3.5 7.0 0.00 1.47 1.39 75 1006.5
20260506171552 58 329 3.5 7.0 0.00 1.47 1.39 74 1006.4
20260506171450 58 328 3.5 7.0 0.00 1.47 1.39 73 1006.5
20260506171351 58 328 3.5 7.0 0.00 1.47 1.39 73 1006.5
20260506171251 58 330 2.6 7.0 0.00 1.47 1.39 73 1006.5
20260506171151 58 329 2.6 7.0 0.00 1.47 1.39 73 1006.6
20260506171051 58 332 1.7 7.0 0.00 1.47 1.39 73 1006.5
20260506170951 58 334 1.7 5.2 0.00 1.47 1.39 72 1006.5
20260506170850 58 335 1.7 5.2 0.00 1.47 1.39 72 1006.5
20260506170752 58 337 0.9 3.5 0.00 1.47 1.39 72 1006.4
20260506170652 58 341 0.9 3.5 0.00 1.47 1.39 72 1006.4
20260506170549 58 343 0.0 3.5 0.00 1.47 1.39 72 1006.4
20260506170451 58 352 0.0 2.6 0.00 1.47 1.39 72 1006.4
20260506170351 58 10 0.0 2.6 0.00 1.47 1.39 71 1006.4
20260506170251 58 111 0.0 1.7 0.00 1.47 1.39 72 1006.4
20260506170150 58 119 0.0 0.9 0.00 1.47 1.39 71 1006.4
20260506170050 58 125 0.0 0.9 0.00 1.47 1.39 71 1006.4
20260506165950 58 134 0.0 0.9 0.00 1.47 1.39 71 1006.3
20260506165851 58 142 0.0 0.9 0.00 1.47 1.39 71 1006.3
20260506165751 58 142 0.0 0.9 0.00 1.47 1.39 72 1006.3
20260506165651 58 143 0.0 0.9 0.00 1.47 1.39 72 1006.3
20260506165551 58 139 0.0 0.9 0.00 1.47 1.39 73 1006.2
20260506165451 58 147 0.0 0.9 0.00 1.47 1.39 73 1006.3
20260506165350 58 162 0.0 0.9 0.00 1.47 1.39 73 1006.2
20260506165251 58 277 0.0 0.9 0.00 1.47 1.39 74 1006.2
20260506165151 58 301 0.0 0.9 0.00 1.47 1.39 74 1006.2
20260506165051 58 310 0.0 0.9 0.00 1.47 1.39 73 1006.2
20260506164951 58 325 0.0 1.7 0.00 1.47 1.39 73 1006.1
20260506164850 58 332 0.0 1.7 0.00 1.47 1.39 72 1006.1
20260506164750 58 329 0.9 3.5 0.00 1.47 1.39 71 1006.0
20260506164652 58 333 0.9 3.5 0.00 1.47 1.39 71 1006.0
20260506164552 58 335 0.9 5.2 0.00 1.47 1.39 71 1006.0
20260506164449 58 335 1.7 5.2 0.00 1.47 1.39 70 1006.0
20260506164351 58 337 1.7 6.1 0.00 1.47 1.39 70 1006.0
20260506164251 58 336 2.6 6.1 0.00 1.47 1.39 70 1006.0
20260506164151 58 338 2.6 6.1 0.00 1.47 1.39 70 1006.0
20260506164051 58 338 2.6 6.1 0.00 1.47 1.39 70 1006.1
20260506163951 58 339 3.5 7.8 0.00 1.47 1.39 70 1006.2
20260506163850 58 344 3.5 7.8 0.00 1.47 1.39 70 1006.2
20260506163752 58 352 3.5 7.8 0.00 1.47 1.39 71 1006.2
20260506163652 58 4 3.5 7.8 0.00 1.47 1.39 70 1006.2
20260506163549 58 19 4.3 8.7 0.00 1.47 1.39 70 1006.1
20260506163451 58 37 4.3 8.7 0.00 1.47 1.39 70 1006.1
20260506163350 59 51 4.3 9.6 0.00 1.47 1.39 69 1006.2
20260506163250 59 56 4.3 11.3 0.00 1.47 1.39 68 1006.2
20260506163151 59 61 5.2 11.3 0.00 1.47 1.39 67 1006.1
20260506163051 59 64 5.2 11.3 0.00 1.47 1.39 67 1006.2
20260506162951 59 67 5.2 11.3 0.00 1.47 1.39 67 1006.2
20260506162852 59 67 5.2 11.3 0.00 1.47 1.39 66 1006.2
20260506162752 59 65 5.2 11.3 0.00 1.47 1.39 65 1006.2
20260506162650 59 62 5.2 11.3 0.00 1.47 1.39 65 1006.2
20260506162552 59 61 5.2 11.3 0.00 1.47 1.39 65 1006.0
20260506162452 59 57 5.2 11.3 0.00 1.47 1.39 65 1006.0
20260506162351 59 56 4.3 11.3 0.00 1.47 1.39 66 1005.9
20260506162252 59 63 4.3 9.6 0.00 1.47 1.39 66 1005.8
20260506162152 59 64 4.3 8.7 0.00 1.47 1.39 66 1005.8
20260506162050 59 63 4.3 8.7 0.00 1.47 1.39 66 1005.8
20260506161952 59 65 4.3 9.6 0.00 1.47 1.39 66 1005.8
20260506161851 59 68 5.2 9.6 0.00 1.47 1.39 66 1005.7
20260506161751 59 71 5.2 9.6 0.00 1.47 1.39 67 1005.7
20260506161652 59 73 5.2 10.4 0.00 1.47 1.39 67 1005.7
20260506161552 59 74 5.2 10.4 0.00 1.47 1.39 68 1005.7
20260506161450 58 75 5.2 10.4 0.00 1.47 1.39 68 1005.7
20260506161351 58 73 6.1 10.4 0.00 1.47 1.39 68 1005.6
20260506161251 58 71 6.1 10.4 0.00 1.47 1.39 67 1005.6
20260506161151 58 72 6.1 10.4 0.00 1.47 1.39 67 1005.6
20260506161051 58 75 6.1 10.4 0.00 1.47 1.39 67 1005.6
20260506160951 58 76 6.1 10.4 0.00 1.47 1.39 67 1005.6
20260506160850 58 75 6.1 10.4 0.00 1.47 1.39 67 1005.6
20260506160752 58 68 6.1 10.4 0.00 1.47 1.39 68 1005.7
20260506160651 58 65 4.3 5.2 0.00 1.47 1.39 69 1005.6
20260506160551 58 76 4.3 5.2 0.00 1.47 1.39 69 1005.7
20260506160451 58 81 3.5 5.2 0.00 1.47 1.39 69 1005.6
20260506160350 58 97 5.2 5.2 0.00 1.47 1.39 69 1005.6
20260506072623 53 301 1.7 2.6 0.00 0.22 0.06 93 1006.5
20260506072540 53 308 1.7 2.6 0.00 0.20 0.04 93 1006.5
20260506072522 53 308 1.7 2.6 0.00 0.20 0.04 93 1006.5
20260506072422 53 316 1.7 2.6 0.00 0.23 0.03 93 1006.6
20260506071632 53 335 2.6 5.2 0.00 0.22 0.03 93 1006.7
20260506071532 53 336 2.6 5.2 0.00 0.22 0.03 93 1006.7
20260506071432 53 337 2.6 5.2 0.00 0.26 0.03 93 1006.7
20260506071332 53 338 2.6 5.2 0.00 0.25 0.02 93 1006.7
20260506071232 53 340 1.7 5.2 0.00 0.25 0.02 93 1006.7
20260506071132 53 342 1.7 5.2 0.00 0.25 0.02 93 1006.8
20260506071032 53 343 1.7 5.2 0.00 0.25 0.02 93 1006.7
20260506070933 53 340 1.7 5.2 0.00 0.25 0.02 93 1006.7
20260506070832 53 338 0.9 5.2 0.00 0.25 0.02 93 1006.7
20260506070731 53 339 0.9 3.5 0.00 0.25 0.02 93 1006.8
20260506070631 53 332 0.9 3.5 0.00 0.25 0.01 93 1006.8
20260506070531 53 317 0.9 2.6 0.00 0.25 0.01 93 1006.8
20260506070433 53 240 0.0 2.6 0.00 0.25 0.01 93 1006.8
20260506070332 53 234 0.0 2.6 0.00 0.24 0.00 93 1006.7
20260506070232 53 229 0.0 2.6 0.00 0.24 0.00 93 1006.8
20260506070132 53 236 0.0 2.6 0.00 0.24 0.00 93 1006.9
20260506062432 53 274 0.9 5.2 0.22 0.70 0.33 93 1006.6
20260506062408 53 274 0.9 5.2 0.22 0.70 0.33 93 1006.6
20260506062331 53 264 0.9 3.5 0.22 0.69 0.32 93 1006.8
20260506062232 53 262 0.9 2.6 0.22 0.70 0.32 93 1006.7
20260506062132 53 270 0.9 2.6 0.22 0.68 0.30 93 1006.7
20260506062108 53 270 0.9 2.6 0.22 0.68 0.30 93 1006.7
20260506062032 53 287 0.9 1.7 0.21 0.67 0.29 93 1006.6
20260506061933 53 302 0.9 3.5 0.20 0.67 0.29 93 1006.6
20260506061832 53 310 0.9 3.5 0.21 0.67 0.28 93 1006.6
20260506061808 53 310 0.9 3.5 0.21 0.67 0.28 93 1006.6
20260506061732 53 319 0.9 3.5 0.20 0.67 0.27 93 1006.6
20260506061632 53 321 0.9 3.5 0.20 0.66 0.26 93 1006.6
20260506061532 53 318 0.9 3.5 0.19 0.66 0.25 93 1006.6
20260506061507 53 318 0.9 3.5 0.19 0.66 0.25 93 1006.6
20260506061431 53 315 1.7 3.5 0.20 0.66 0.25 93 1006.6
20260506061332 53 313 1.7 3.5 0.20 0.66 0.25 93 1006.6
20260506061232 53 310 1.7 3.5 0.20 0.66 0.25 93 1006.6
20260506061208 53 310 1.7 3.5 0.20 0.66 0.25 93 1006.6
20260506061132 53 309 1.7 3.5 0.22 0.66 0.25 93 1006.5
20260506061032 53 310 1.7 3.5 0.21 0.66 0.24 93 1006.5
20260506060932 53 312 1.7 3.5 0.21 0.65 0.23 93 1006.5
20260506060909 53 312 1.7 3.5 0.21 0.65 0.23 93 1006.5
20260506060832 53 315 1.7 3.5 0.21 0.65 0.23 93 1006.6
20260506060449 53 325 0.9 2.6 0.19 0.65 0.22 93 1006.6
20260506060350 53 335 0.9 2.6 0.19 0.65 0.22 93 1006.6
20260506060308 53 338 0.9 2.6 0.19 0.66 0.22 93 1006.5
20260506060250 53 338 0.9 2.6 0.19 0.66 0.22 93 1006.5
20260506060150 53 339 1.7 2.6 0.18 0.65 0.21 93 1006.5
20260506051351 53 346 0.9 1.7 0.04 0.58 0.04 93 1006.9
20260506051250 53 347 0.9 1.7 0.03 0.57 0.03 93 1006.9
20260506051208 53 347 0.9 1.7 0.03 0.57 0.03 93 1006.9
20260506051150 53 346 0.9 1.7 0.03 0.57 0.03 93 1007.0
20260506051050 53 346 0.9 1.7 0.03 0.57 0.03 93 1007.1
20260506050950 53 345 0.9 1.7 0.02 0.56 0.02 93 1007.0
20260506050909 53 345 0.9 1.7 0.02 0.56 0.02 93 1007.0
20260506050851 53 347 0.9 1.7 0.02 0.56 0.02 93 1007.0
20260506050751 53 350 0.0 1.7 0.02 0.57 0.02 93 1007.0
20260506050650 53 349 0.0 1.7 0.02 0.57 0.02 93 1007.0
20260506050609 53 349 0.0 1.7 0.02 0.57 0.02 93 1007.0
20260506050551 53 349 0.0 0.9 0.02 0.57 0.02 93 1007.0
20260506050450 53 350 0.0 0.9 0.02 0.57 0.02 93 1007.1
20260506050351 53 350 0.0 0.9 0.02 0.57 0.02 93 1007.1
20260506050308 53 350 0.0 0.9 0.02 0.57 0.02 93 1007.1
20260506050250 53 350 0.0 0.9 0.02 0.57 0.02 93 1007.1
20260506050150 53 350 0.0 0.9 0.02 0.58 0.02 92 1007.1
20260506045108 53 336 0.9 1.7 0.02 0.59 0.02 92 1007.1
20260506045050 53 334 0.9 1.7 0.02 0.59 0.02 92 1007.1
20260506044950 53 332 0.9 1.7 0.02 0.59 0.02 93 1007.2
20260506044851 53 330 0.9 1.7 0.02 0.59 0.02 93 1007.2
20260506044809 53 330 0.9 1.7 0.02 0.59 0.02 93 1007.2
20260506044751 53 330 0.9 1.7 0.02 0.59 0.02 92 1007.2
20260506044651 53 327 0.9 1.7 0.02 0.59 0.02 92 1007.2
20260506044551 53 328 0.9 1.7 0.01 0.59 0.01 92 1007.2
20260506044508 53 328 0.9 1.7 0.01 0.59 0.01 92 1007.2
20260506044450 53 329 0.9 1.7 0.01 0.59 0.01 93 1007.3
20260506044351 53 329 0.9 1.7 0.01 0.59 0.01 92 1007.3
20260506044251 53 328 0.9 1.7 0.00 0.59 0.00 93 1007.3
20260506044209 53 328 0.9 1.7 0.00 0.59 0.00 93 1007.3
20260506044151 53 330 0.9 1.7 0.00 0.59 0.00 93 1007.3
20260506044051 53 329 0.9 1.7 0.00 0.59 0.00 92 1007.2
20260506043951 53 327 0.9 1.7 0.00 0.59 0.00 93 1007.3
20260506043908 53 327 0.9 1.7 0.00 0.59 0.00 93 1007.3
20260506043850 53 328 0.9 1.7 0.00 0.59 0.00 92 1007.2
20260506043750 53 328 0.9 1.7 0.00 0.59 0.00 93 1007.3
20260506043650 53 327 1.7 1.7 0.00 0.59 0.00 92 1007.3
20260506043607 53 327 1.7 1.7 0.00 0.59 0.00 92 1007.3
20260506043549 53 325 0.9 1.7 0.00 0.59 0.00 92 1007.3
20260506043449 53 323 0.9 1.7 0.00 0.59 0.00 92 1007.4
20260506043350 53 321 0.9 1.7 0.00 0.59 0.00 92 1007.4
20260506043308 53 321 0.9 1.7 0.00 0.59 0.00 92 1007.4
20260506043250 53 318 0.9 1.7 0.00 0.59 0.00 92 1007.4
20260506043150 53 314 0.9 1.7 0.00 0.59 0.00 92 1007.4
20260506043050 53 311 0.9 1.7 0.00 0.59 0.00 93 1007.4
20260506043007 53 311 0.9 1.7 0.00 0.59 0.00 93 1007.4
20260506042949 53 312 0.9 1.7 0.00 0.59 0.00 93 1007.4
20260506042851 53 311 0.9 1.7 0.00 0.59 0.00 92 1007.4
20260506042751 53 310 0.9 1.7 0.00 0.59 0.00 92 1007.4
20260506042708 53 310 0.9 1.7 0.00 0.59 0.00 92 1007.4
20260506042650 53 310 0.9 1.7 0.00 0.59 0.00 92 1007.4
20260506042550 53 315 1.7 1.7 0.00 0.59 0.00 93 1007.4
20260506042450 53 319 1.7 1.7 0.00 0.59 0.00 92 1007.4
20260506042408 53 319 1.7 1.7 0.00 0.59 0.00 92 1007.4
20260506042350 53 322 1.7 1.7 0.00 0.59 0.00 92 1007.5
20260506042250 53 326 1.7 2.6 0.00 0.59 0.00 92 1007.4
20260506042150 53 329 1.7 2.6 0.00 0.59 0.00 92 1007.5
20260506042107 53 329 1.7 2.6 0.00 0.59 0.00 92 1007.5
20260506042049 53 332 1.7 2.6 0.00 0.59 0.00 92 1007.5
20260506041949 53 335 1.7 2.6 0.00 0.60 0.00 92 1007.5
20260506041851 53 339 1.7 2.6 0.00 0.60 0.00 92 1007.5
20260506041809 53 339 1.7 2.6 0.00 0.60 0.00 92 1007.5
20260506041751 53 343 1.7 2.6 0.00 0.60 0.00 92 1007.6
20260506041651 53 345 1.7 2.6 0.00 0.60 0.00 92 1007.5
20260506041551 53 346 1.7 2.6 0.00 0.60 0.00 92 1007.7
20260506041508 53 346 1.7 2.6 0.00 0.60 0.00 92 1007.7
20260506041450 53 346 1.7 2.6 0.00 0.60 0.00 92 1007.6
20260506041350 53 346 1.7 2.6 0.00 0.60 0.00 92 1007.6
20260506041250 53 347 1.7 2.6 0.00 0.60 0.00 92 1007.6
20260506041208 53 347 1.7 2.6 0.00 0.60 0.00 92 1007.6
20260506041150 53 349 1.7 2.6 0.00 0.60 0.00 92 1007.6
20260506041050 53 350 1.7 2.6 0.00 0.60 0.00 92 1007.5
20260506040950 53 350 1.7 2.6 0.00 0.60 0.00 92 1007.6
20260506040909 53 350 1.7 2.6 0.00 0.60 0.00 92 1007.6
20260506040851 53 349 1.7 2.6 0.00 0.60 0.00 92 1007.6
20260506040751 53 349 1.7 2.6 0.00 0.60 0.00 92 1007.6
20260506040650 53 349 1.7 2.6 0.00 0.60 0.00 92 1007.7
20260506040608 53 349 1.7 2.6 0.00 0.60 0.00 92 1007.7
20260506040550 53 349 1.7 2.6 0.00 0.60 0.00 92 1007.6
20260506040450 53 349 1.7 2.6 0.00 0.60 0.00 92 1007.6
20260506040350 53 351 1.7 1.7 0.00 0.60 0.00 92 1007.6
20260506040309 53 351 1.7 1.7 0.00 0.60 0.00 92 1007.6
20260506040251 53 354 0.9 1.7 0.00 0.60 0.00 92 1007.6
20260506040151 53 354 0.9 1.7 0.00 0.60 0.00 92 1007.6
20260506040051 53 355 0.9 1.7 0.00 0.60 0.00 92 1007.6
20260506040009 53 355 0.9 1.7 0.00 0.60 0.00 92 1007.6
20260506035951 53 356 0.9 1.7 0.00 0.60 0.00 92 1007.7
20260506035849 53 357 0.9 1.7 0.00 0.60 0.00 92 1007.7
20260506035749 53 357 0.9 1.7 0.00 0.60 0.00 92 1007.7
20260506035709 53 357 0.9 1.7 0.00 0.60 0.00 92 1007.7
20260506035651 53 357 0.9 2.6 0.00 0.60 0.00 92 1007.7
20260506035550 53 355 1.7 2.6 0.00 0.60 0.00 92 1007.6
20260506035450 53 355 1.7 2.6 0.00 0.60 0.00 92 1007.7
20260506035408 53 355 1.7 2.6 0.00 0.60 0.00 92 1007.7
20260506035349 53 352 1.7 2.6 0.00 0.60 0.00 92 1007.7
20260506035249 53 349 1.7 2.6 0.00 0.61 0.00 92 1007.8
20260506035151 53 348 1.7 2.6 0.00 0.61 0.00 92 1007.7
20260506035109 53 348 1.7 2.6 0.00 0.61 0.00 92 1007.7
20260506035051 53 347 1.7 2.6 0.00 0.61 0.00 92 1007.7
20260506034951 53 347 1.7 2.6 0.00 0.61 0.00 92 1007.7
20260506034851 53 345 1.7 2.6 0.00 0.61 0.00 92 1007.7
20260506034809 53 345 1.7 2.6 0.00 0.61 0.00 92 1007.7
20260506034751 53 343 1.7 2.6 0.00 0.61 0.00 92 1007.7
20260506034651 53 341 1.7 2.6 0.00 0.61 0.00 92 1007.7
20260506034551 53 341 1.7 2.6 0.00 0.61 0.00 92 1007.7
20260506034508 53 341 1.7 2.6 0.00 0.61 0.00 92 1007.7
20260506034450 53 338 1.7 2.6 0.00 0.61 0.00 92 1007.8
20260506034351 53 337 1.7 2.6 0.00 0.61 0.00 92 1007.7
20260506034251 53 334 1.7 2.6 0.00 0.61 0.00 92 1007.8
20260506034208 53 334 1.7 2.6 0.00 0.61 0.00 92 1007.8
20260506034151 53 332 0.9 2.6 0.00 0.61 0.00 92 1007.8
20260506034050 53 330 0.9 2.6 0.00 0.62 0.00 92 1007.7
20260506033950 53 326 0.9 2.6 0.00 0.62 0.00 92 1007.8
20260506033908 53 326 0.9 2.6 0.00 0.62 0.00 92 1007.8
20260506033851 53 326 0.9 1.7 0.00 0.62 0.00 92 1007.9
20260506033749 53 327 0.9 1.7 0.00 0.62 0.00 92 1007.8
20260506033651 53 326 0.9 1.7 0.00 0.62 0.00 92 1007.7
20260506033609 53 326 0.9 1.7 0.00 0.62 0.00 92 1007.7
20260506033551 53 326 0.9 1.7 0.00 0.62 0.00 92 1007.7
20260506033450 53 327 0.9 2.6 0.00 0.62 0.00 92 1007.8
20260506033350 53 327 0.9 2.6 0.00 0.62 0.00 92 1007.8
20260506033308 53 327 0.9 2.6 0.00 0.62 0.00 92 1007.8
20260506033250 53 328 0.9 2.6 0.00 0.62 0.00 92 1007.8
20260506033150 53 328 1.7 2.6 0.00 0.62 0.00 92 1007.8
20260506033050 53 328 1.7 2.6 0.00 0.62 0.00 92 1007.8
20260506033007 53 328 1.7 2.6 0.00 0.62 0.00 92 1007.8
20260506032951 53 327 1.7 2.6 0.00 0.62 0.00 92 1007.8
20260506032850 53 326 1.7 2.6 0.00 0.62 0.00 92 1007.9
20260506032750 53 325 0.9 2.6 0.00 0.62 0.00 92 1007.9
20260506032708 53 325 0.9 2.6 0.00 0.62 0.00 92 1007.9
20260506032649 53 325 0.9 2.6 0.00 0.62 0.00 92 1007.9
20260506032550 53 325 0.9 2.6 0.00 0.62 0.00 92 1007.8
20260506032450 53 323 0.9 2.6 0.00 0.62 0.00 92 1007.9
20260506032407 53 323 0.9 2.6 0.00 0.62 0.00 92 1007.9
20260506032351 53 322 0.9 1.7 0.00 0.62 0.00 92 1007.9
20260506032251 53 323 0.9 1.7 0.00 0.62 0.00 92 1007.9
20260506032151 53 323 0.9 1.7 0.00 0.62 0.00 92 1007.9
20260506032108 53 323 0.9 1.7 0.00 0.62 0.00 92 1007.9
20260506032050 53 323 0.9 1.7 0.00 0.62 0.00 92 1008.0
20260506031950 53 323 0.9 1.7 0.00 0.62 0.00 92 1007.9
20260506031849 53 323 0.9 1.7 0.00 0.62 0.00 92 1008.0
20260506031809 53 323 0.9 1.7 0.00 0.62 0.00 92 1008.0
20260506031751 53 323 0.9 1.7 0.00 0.62 0.00 92 1008.0
20260506031651 53 323 0.9 1.7 0.00 0.62 0.00 92 1008.1
20260506031551 53 323 0.9 1.7 0.00 0.62 0.00 92 1008.1
20260506031509 53 323 0.9 1.7 0.00 0.62 0.00 92 1008.1
20260506031450 53 323 0.9 1.7 0.00 0.62 0.00 92 1008.1
20260506031349 53 323 0.9 1.7 0.00 0.62 0.00 92 1008.2
20260506031249 53 323 0.9 1.7 0.00 0.62 0.00 92 1008.1
20260506031209 53 323 0.9 1.7 0.00 0.62 0.00 92 1008.1
20260506031151 53 323 0.9 1.7 0.00 0.62 0.00 92 1008.2
20260506031051 53 323 0.9 1.7 0.00 0.62 0.00 92 1008.3
20260506030951 53 323 0.9 1.7 0.00 0.62 0.00 92 1008.2
20260506030908 53 323 0.9 1.7 0.00 0.62 0.00 92 1008.2
20260506030849 53 323 0.9 1.7 0.00 0.62 0.00 92 1008.2
20260506030749 53 323 0.9 1.7 0.00 0.62 0.00 92 1008.2
20260506030650 53 323 0.0 0.9 0.00 0.62 0.00 92 1008.3
20260506030608 53 323 0.0 0.9 0.00 0.62 0.00 92 1008.3
20260506030550 53 323 0.9 0.9 0.00 0.62 0.00 92 1008.4
20260506030450 53 323 0.9 0.9 0.00 0.62 0.00 92 1008.3
20260506030349 53 323 0.9 0.9 0.00 0.62 0.00 92 1008.3
20260506030309 53 323 0.9 0.9 0.00 0.62 0.00 92 1008.3
20260506030251 53 323 0.9 1.7 0.00 0.62 0.00 92 1008.2
20260506030151 53 323 0.9 1.7 0.00 0.62 0.00 92 1008.3
20260506030051 53 323 0.9 1.7 0.00 0.62 0.00 92 1008.3
20260506030009 53 323 0.9 1.7 0.00 0.62 0.00 92 1008.3
20260506025951 53 323 0.9 1.7 0.00 0.62 0.00 92 1008.4
20260506025849 53 323 0.9 1.7 0.00 0.62 0.00 92 1008.3
20260506025749 53 323 0.9 1.7 0.00 0.62 0.00 92 1008.5
20260506025709 53 323 0.9 1.7 0.00 0.62 0.00 92 1008.5
20260506025651 53 323 0.9 1.7 0.00 0.62 0.00 92 1008.5
20260506025551 53 323 0.9 1.7 0.00 0.62 0.00 92 1008.5
20260506025451 53 323 0.9 1.7 0.00 0.62 0.00 92 1008.5
20260506025408 53 323 0.9 1.7 0.00 0.62 0.00 92 1008.5
20260506025350 53 323 0.9 2.6 0.00 0.62 0.00 92 1008.5
20260506025250 53 323 0.9 2.6 0.00 0.62 0.00 92 1008.5
20260506025150 53 324 0.9 2.6 0.00 0.62 0.00 92 1008.6
20260506025108 53 324 0.9 2.6 0.00 0.62 0.00 92 1008.6
20260506025050 53 325 1.7 2.6 0.00 0.62 0.00 92 1008.6
20260506024950 53 325 1.7 2.6 0.00 0.62 0.00 92 1008.6
20260506024849 53 326 1.7 2.6 0.00 0.62 0.00 92 1008.6
20260506024809 53 326 1.7 2.6 0.00 0.62 0.00 92 1008.6
20260506024751 53 329 1.7 2.6 0.00 0.62 0.00 92 1008.6
20260506024651 53 332 1.7 2.6 0.00 0.62 0.00 92 1008.6
20260506024551 53 334 1.7 2.6 0.00 0.62 0.00 92 1008.6
20260506024508 53 334 1.7 2.6 0.00 0.62 0.00 92 1008.6
20260506024450 53 336 1.7 2.6 0.00 0.62 0.00 92 1008.6
20260506024350 53 338 1.7 2.6 0.00 0.62 0.00 92 1008.6
20260506024250 53 339 1.7 2.6 0.00 0.62 0.00 92 1008.6
20260506024208 53 339 1.7 2.6 0.00 0.62 0.00 92 1008.6
20260506024150 53 343 1.7 2.6 0.00 0.62 0.00 92 1008.6
20260506024049 53 344 1.7 2.6 0.00 0.62 0.00 92 1008.6
20260506023949 53 347 0.9 2.6 0.00 0.62 0.00 92 1008.7
20260506023908 53 347 0.9 2.6 0.00 0.62 0.00 92 1008.7
20260506023850 53 349 0.9 2.6 0.00 0.62 0.00 92 1008.7
20260506023750 53 349 0.9 2.6 0.00 0.62 0.00 92 1008.6
20260506023650 53 348 0.9 2.6 0.00 0.62 0.00 92 1008.6
20260506023608 53 348 0.9 2.6 0.00 0.62 0.00 92 1008.6
20260506023550 53 349 0.9 2.6 0.00 0.62 0.00 92 1008.6
20260506023450 53 351 0.0 2.6 0.00 0.62 0.00 92 1008.5
20260506023350 53 352 0.0 2.6 0.00 0.62 0.00 92 1008.5
20260506023308 53 352 0.0 2.6 0.00 0.62 0.00 92 1008.5
20260506023250 53 353 0.0 2.6 0.00 0.62 0.00 92 1008.6
20260506023150 53 342 0.0 0.9 0.00 0.62 0.00 92 1008.6
20260506023050 53 330 0.0 0.0 0.00 0.62 0.00 92 1008.6
20260506023008 53 330 0.0 0.0 0.00 0.62 0.00 92 1008.6
20260506022950 53 330 0.0 0.0 0.00 0.62 0.00 92 1008.7
20260506022850 53 330 0.0 0.0 0.00 0.62 0.00 92 1008.7
20260506022750 53 330 0.0 0.9 0.00 0.62 0.00 92 1008.8
20260506022709 53 330 0.0 0.9 0.00 0.62 0.00 92 1008.8
20260506022651 53 327 0.0 2.6 0.00 0.62 0.00 92 1008.8
20260506022551 53 321 0.0 2.6 0.00 0.62 0.00 92 1008.8
20260506022451 53 320 0.0 2.6 0.00 0.62 0.00 92 1008.8
20260506022408 53 320 0.0 2.6 0.00 0.62 0.00 92 1008.8
20260506022349 53 325 0.9 2.6 0.00 0.62 0.00 92 1008.8
20260506022250 53 326 0.9 2.6 0.00 0.62 0.00 92 1008.8
20260506022150 53 329 0.9 2.6 0.00 0.62 0.00 92 1008.7
20260506022108 53 329 0.9 2.6 0.00 0.62 0.00 92 1008.7
20260506022050 53 332 0.9 2.6 0.00 0.62 0.00 92 1008.9
20260506021950 53 332 0.9 2.6 0.00 0.62 0.00 92 1008.8
20260506021851 53 333 0.9 2.6 0.00 0.62 0.00 92 1008.7
20260506021808 53 333 0.9 2.6 0.00 0.62 0.00 92 1008.7
20260506021750 53 333 0.9 2.6 0.00 0.62 0.00 92 1008.8
20260506021650 53 335 0.9 2.6 0.00 0.62 0.00 92 1008.8
20260506021550 53 339 0.9 2.6 0.00 0.62 0.00 91 1008.8
20260506021508 53 339 0.9 2.6 0.00 0.62 0.00 91 1008.8
20260506021450 53 345 0.9 2.6 0.00 0.62 0.00 92 1008.8
20260506021350 53 344 0.0 1.7 0.00 0.62 0.00 92 1008.8
20260506021250 53 353 0.0 1.7 0.00 0.62 0.00 92 1008.8
20260506021208 53 353 0.0 1.7 0.00 0.62 0.00 92 1008.8
20260506021150 53 356 0.0 1.7 0.00 0.62 0.00 92 1008.8
20260506021050 53 357 0.0 0.0 0.00 0.62 0.00 92 1008.8
20260506020950 53 357 0.0 0.0 0.00 0.62 0.00 92 1008.8
20260506020907 53 357 0.0 0.9 0.00 0.62 0.00 92 1008.9
20260506020851 53 357 0.0 0.9 0.00 0.62 0.00 92 1008.9
20260506020751 53 357 0.0 0.9 0.00 0.62 0.00 91 1008.9
20260506020651 53 358 0.0 0.9 0.00 0.62 0.00 91 1008.9
20260506020609 53 355 0.0 0.9 0.00 0.62 0.00 91 1008.9
20260506020551 53 355 0.0 0.9 0.00 0.62 0.00 91 1008.9
20260506020451 53 347 0.9 2.6 0.00 0.62 0.00 92 1009.0
20260506020349 53 342 0.9 2.6 0.00 0.62 0.00 92 1009.0
20260506020307 53 342 0.9 2.6 0.00 0.62 0.00 92 1009.0
20260506020249 53 340 0.9 3.5 0.00 0.62 0.00 92 1009.0
20260506020149 53 338 0.9 3.5 0.00 0.62 0.00 92 1009.0
20260506020049 53 337 0.9 3.5 0.00 0.62 0.00 92 1009.0
20260506020009 53 337 0.9 3.5 0.00 0.62 0.00 92 1009.0
20260506015951 53 336 1.7 3.5 0.00 0.62 0.00 92 1009.0
20260506015850 53 335 1.7 3.5 0.00 0.62 0.00 92 1008.9
20260506015750 53 333 0.9 3.5 0.00 0.62 0.00 91 1009.0
20260506015708 53 333 0.9 3.5 0.00 0.62 0.00 91 1009.0
20260506015650 53 331 0.9 3.5 0.00 0.62 0.00 91 1009.0
20260506015550 53 330 0.9 3.5 0.00 0.62 0.00 91 1008.9
20260506015450 53 332 0.9 3.5 0.00 0.62 0.00 91 1008.9
20260506015407 53 332 0.9 3.5 0.00 0.62 0.00 91 1008.9
20260506015350 53 332 0.9 2.6 0.00 0.62 0.00 91 1008.9
20260506015250 53 333 0.9 1.7 0.00 0.62 0.00 91 1009.0
20260506015150 53 332 0.9 1.7 0.00 0.62 0.00 91 1008.9
20260506015108 53 332 0.9 1.7 0.00 0.62 0.00 91 1008.9
20260506015050 53 332 0.9 1.7 0.00 0.62 0.00 91 1008.9
20260506014950 54 333 0.9 0.9 0.00 0.62 0.00 91 1009.0
20260506014850 54 331 0.9 0.9 0.00 0.62 0.00 91 1009.0
20260506014808 54 331 0.9 0.9 0.00 0.62 0.00 91 1009.0
20260506014750 54 330 0.9 0.9 0.00 0.62 0.00 91 1009.0
20260506014650 54 329 0.9 0.9 0.00 0.62 0.00 91 1009.0
20260506014550 54 326 0.9 0.9 0.00 0.62 0.00 92 1009.0
20260506014508 54 326 0.9 0.9 0.00 0.62 0.00 92 1009.0
20260506014450 54 325 0.0 0.9 0.00 0.62 0.00 91 1009.0
20260506014350 54 323 0.0 0.9 0.00 0.62 0.00 91 1008.9
20260506014250 54 322 0.0 0.9 0.00 0.62 0.00 91 1008.9
20260506014208 54 322 0.0 0.9 0.00 0.62 0.00 91 1008.9
20260506014150 54 318 0.0 0.9 0.00 0.62 0.00 91 1009.0
20260506014050 54 314 0.0 0.9 0.00 0.62 0.00 92 1009.0
20260506013950 54 307 0.0 0.9 0.00 0.62 0.00 92 1009.0
20260506013907 54 307 0.0 0.9 0.00 0.62 0.00 92 1009.0
20260506013850 54 301 0.0 0.0 0.00 0.62 0.00 92 1009.0
20260506013750 54 301 0.0 0.0 0.00 0.62 0.00 92 1009.0
20260506013650 53 301 0.0 0.0 0.00 0.62 0.00 92 1009.0
20260506013608 53 301 0.0 0.0 0.00 0.62 0.00 92 1009.0
20260506013550 53 302 0.0 0.9 0.00 0.62 0.00 92 1009.1
20260506013450 53 313 0.0 0.9 0.00 0.62 0.00 91 1009.1
20260506013351 53 317 0.0 0.9 0.00 0.62 0.00 91 1009.0
20260506013309 53 317 0.0 0.9 0.00 0.62 0.00 91 1009.0
20260506013251 53 322 0.0 0.9 0.00 0.62 0.00 91 1009.0
20260506013151 54 325 0.0 0.9 0.00 0.62 0.00 92 1009.0
20260506013051 53 325 0.0 0.9 0.00 0.62 0.00 92 1009.0
20260506013008 53 325 0.0 0.9 0.00 0.62 0.00 92 1009.0
20260506012950 53 328 0.0 0.9 0.00 0.62 0.00 92 1009.0
20260506012849 53 333 0.0 0.9 0.00 0.62 0.00 92 1008.9
20260506012749 53 334 0.0 0.9 0.00 0.62 0.00 92 1009.1
20260506012709 53 334 0.0 0.9 0.00 0.62 0.00 92 1009.1
20260506012651 53 336 0.0 0.9 0.00 0.62 0.00 92 1009.0
20260506012551 53 346 0.0 0.9 0.00 0.62 0.00 92 1009.1
20260506012451 53 350 0.0 0.0 0.00 0.62 0.00 92 1009.2
20260506012408 53 350 0.0 0.0 0.00 0.62 0.00 92 1009.2
20260506012350 53 350 0.0 0.0 0.00 0.62 0.00 92 1009.1
20260506012249 53 350 0.0 0.0 0.00 0.62 0.00 92 1009.0
20260506012150 53 350 0.0 0.0 0.00 0.62 0.00 92 1009.0
20260506012108 53 350 0.0 0.0 0.00 0.62 0.00 92 1009.0
20260506012050 54 350 0.0 0.0 0.00 0.62 0.00 92 1009.1
20260506011950 53 349 0.0 0.9 0.00 0.62 0.00 92 1009.0
20260506011850 54 349 0.0 0.9 0.00 0.62 0.00 92 1009.0
20260506011808 54 349 0.0 0.9 0.00 0.62 0.00 92 1009.0
20260506011750 54 349 0.0 0.9 0.00 0.62 0.00 92 1009.1
20260506011650 54 349 0.0 0.9 0.00 0.62 0.00 92 1009.0
20260506011550 53 349 0.0 0.9 0.00 0.62 0.00 92 1009.0
20260506011508 53 349 0.0 0.9 0.00 0.62 0.00 92 1009.1
20260506011450 53 349 0.0 0.9 0.00 0.62 0.00 92 1009.1
20260506011350 53 349 0.0 0.9 0.00 0.62 0.00 92 1009.2
20260506011250 53 349 0.0 0.9 0.00 0.62 0.00 92 1009.1
20260506011208 53 349 0.0 0.9 0.00 0.62 0.00 92 1009.1
20260506011150 53 349 0.0 0.9 0.00 0.62 0.00 92 1009.2
20260506011050 53 349 0.0 0.9 0.00 0.62 0.00 92 1009.2
20260506010950 53 349 0.0 0.9 0.00 0.62 0.00 92 1009.2
20260506010907 53 349 0.0 0.9 0.00 0.62 0.00 92 1009.2
20260506010851 53 350 0.0 0.9 0.00 0.62 0.00 92 1009.3
20260506010751 53 350 0.0 0.9 0.00 0.62 0.00 92 1009.2
20260506010651 53 350 0.0 0.9 0.00 0.62 0.00 92 1009.3
20260506010608 53 350 0.0 0.9 0.00 0.62 0.00 92 1009.3
20260506010550 53 349 0.0 0.9 0.00 0.62 0.00 92 1009.3
20260506010450 53 347 0.0 1.7 0.00 0.62 0.00 92 1009.3
20260506010351 53 345 0.0 1.7 0.00 0.62 0.00 92 1009.5
20260506010308 53 345 0.0 1.7 0.00 0.62 0.00 92 1009.5
20260506010250 53 344 0.0 1.7 0.00 0.62 0.00 92 1009.4
20260506010150 53 345 0.0 1.7 0.00 0.62 0.00 92 1009.4
20260506010050 53 345 0.0 1.7 0.00 0.62 0.00 92 1009.6
20260506010008 53 345 0.0 1.7 0.00 0.62 0.00 92 1009.6
20260506005950 53 345 0.0 1.7 0.00 0.62 0.00 92 1009.5
20260506005851 53 345 0.0 1.7 0.00 0.62 0.00 92 1009.5
20260506005751 53 345 0.0 1.7 0.00 0.62 0.00 92 1009.5
20260506005709 53 345 0.0 1.7 0.00 0.62 0.00 92 1009.5
20260506005651 53 345 0.0 1.7 0.00 0.62 0.00 91 1009.5
20260506005551 53 346 0.0 1.7 0.00 0.62 0.00 92 1009.5
20260506005451 53 352 0.0 0.9 0.00 0.62 0.00 91 1009.4
20260506005407 53 352 0.0 0.9 0.00 0.62 0.00 91 1009.4
20260506005350 53 353 0.0 0.9 0.00 0.62 0.00 91 1009.4
20260506005250 54 350 0.0 0.9 0.00 0.62 0.00 92 1009.4
20260506005150 53 347 0.0 0.9 0.00 0.62 0.00 92 1009.5
20260506005108 53 347 0.0 0.9 0.00 0.62 0.00 92 1009.5
20260506005050 53 346 0.0 0.9 0.00 0.62 0.00 92 1009.5
20260506004950 53 342 0.0 0.9 0.00 0.62 0.00 91 1009.5
20260506004850 53 338 0.0 0.9 0.00 0.62 0.00 92 1009.5
20260506004807 53 338 0.0 0.9 0.00 0.62 0.00 92 1009.5
20260506004749 53 336 0.0 0.9 0.00 0.62 0.00 91 1009.6
20260506004651 53 331 0.0 0.9 0.00 0.62 0.00 91 1009.5
20260506004551 53 326 0.0 0.9 0.00 0.62 0.00 91 1009.6
20260506004508 53 326 0.0 0.9 0.00 0.62 0.00 91 1009.6
20260506004450 53 317 0.0 0.9 0.00 0.62 0.00 91 1009.6
20260506004351 53 315 0.0 0.9 0.00 0.62 0.00 92 1009.6
20260506004251 53 315 0.0 0.9 0.00 0.62 0.00 92 1009.7
20260506004208 53 315 0.0 0.9 0.00 0.62 0.00 92 1009.7
20260506004150 53 315 0.0 0.9 0.00 0.62 0.00 92 1009.8
20260506004050 53 315 0.9 0.9 0.00 0.62 0.00 91 1009.8
20260506003950 53 316 0.9 1.7 0.00 0.62 0.00 91 1009.8
20260506003909 53 316 0.9 1.7 0.00 0.62 0.00 91 1009.8
20260506003850 53 318 0.9 2.6 0.00 0.62 0.00 91 1009.8
20260506003750 53 318 0.9 2.6 0.00 0.62 0.00 91 1009.8
20260506003650 53 317 0.9 2.6 0.00 0.62 0.00 91 1009.7
20260506003607 53 317 0.9 2.6 0.00 0.62 0.00 91 1009.7
20260506003549 53 314 0.9 2.6 0.00 0.62 0.00 91 1009.8
20260506003451 53 313 0.9 2.6 0.00 0.62 0.00 92 1009.8
20260506003349 53 315 1.7 2.6 0.00 0.62 0.00 91 1009.8
20260506003308 53 315 1.7 2.6 0.00 0.62 0.00 91 1009.8
20260506003250 53 317 1.7 2.6 0.00 0.62 0.00 91 1009.7
20260506003150 53 319 1.7 2.6 0.00 0.62 0.00 91 1009.7
20260506003050 53 320 1.7 2.6 0.00 0.62 0.00 91 1009.7
20260506003008 53 320 1.7 2.6 0.00 0.62 0.00 91 1009.7
20260506002950 53 321 0.9 2.6 0.00 0.62 0.00 91 1009.6
20260506002849 53 320 0.9 2.6 0.00 0.62 0.00 92 1009.7
20260506002749 53 322 0.9 2.6 0.00 0.62 0.00 92 1009.6
20260506002709 53 322 0.9 2.6 0.00 0.62 0.00 92 1009.6
20260506002651 53 325 0.9 2.6 0.00 0.62 0.00 92 1009.7
20260506002551 53 331 0.9 1.7 0.00 0.62 0.00 91 1009.7
20260506002451 53 335 0.9 1.7 0.00 0.62 0.00 91 1009.7
20260506002408 53 335 0.9 1.7 0.00 0.62 0.00 91 1009.7
20260506002349 53 335 0.9 1.7 0.00 0.62 0.00 91 1009.6
20260506002249 53 335 0.9 1.7 0.00 0.62 0.00 91 1009.6
20260506002149 53 335 0.0 0.9 0.00 0.62 0.00 91 1009.6
20260506002109 53 335 0.0 0.9 0.00 0.62 0.00 91 1009.6
20260506002051 53 335 0.0 0.9 0.00 0.62 0.00 91 1009.6
20260506001951 53 335 0.0 0.9 0.00 0.62 0.00 91 1009.7
20260506001850 53 335 0.0 0.9 0.00 0.62 0.00 91 1009.7
20260506001808 53 336 0.9 1.7 0.00 0.62 0.00 91 1009.6
20260506001750 53 336 0.9 1.7 0.00 0.62 0.00 91 1009.6
20260506001650 53 336 0.9 1.7 0.00 0.62 0.00 92 1009.7
20260506001550 53 335 0.9 1.7 0.00 0.62 0.00 91 1009.8
20260506001507 53 335 0.9 1.7 0.00 0.62 0.00 91 1009.8
20260506001451 53 335 0.9 1.7 0.00 0.62 0.00 91 1009.8
20260506001350 53 335 0.9 1.7 0.00 0.62 0.00 92 1009.8
20260506001250 53 335 0.9 1.7 0.00 0.62 0.00 91 1009.7
20260506001208 53 335 0.9 1.7 0.00 0.62 0.00 91 1009.7
20260506001150 53 335 0.9 1.7 0.00 0.62 0.00 91 1009.8
20260506001050 53 335 0.9 1.7 0.00 0.62 0.00 91 1009.7
20260506000950 53 335 0.9 1.7 0.00 0.62 0.00 91 1009.7
20260506000908 53 335 0.9 1.7 0.00 0.62 0.00 91 1009.7
20260506000849 53 335 0.9 1.7 0.00 0.62 0.00 91 1009.5
20260506000749 53 335 0.9 1.7 0.00 0.62 0.00 91 1009.8
20260506000649 53 335 0.9 1.7 0.00 0.62 0.00 91 1009.8
20260506000609 53 335 0.9 1.7 0.00 0.62 0.00 91 1009.8
20260506000551 53 335 0.0 1.7 0.00 0.62 0.00 91 1009.8
20260506000451 54 335 0.0 0.9 0.00 0.62 0.00 91 1009.7
20260506000350 53 335 0.0 0.9 0.00 0.62 0.00 91 1009.7
20260506000309 53 335 0.0 0.9 0.00 0.62 0.00 91 1009.7
20260506000250 53 336 0.0 0.9 0.00 0.62 0.00 91 1009.7
20260506000150 54 336 0.0 0.9 0.00 0.62 0.00 91 1009.7
20260506000050 54 335 0.0 0.9 0.00 0.62 0.00 91 1009.8
20260506000008 54 335 0.0 0.9 0.00 0.62 0.00 91 1009.8
20260505235950 54 335 0.0 0.0 0.00 0.62 0.00 91 1009.8
20260505235849 54 335 0.0 0.0 0.00 0.62 0.00 91 1009.9
20260505235749 54 335 0.0 0.0 0.00 0.62 0.00 91 1009.8
20260505235709 54 335 0.0 0.0 0.00 0.62 0.00 91 1009.8
20260505235651 54 335 0.0 0.0 0.00 0.62 0.00 91 1009.9
20260505235551 54 336 0.0 0.0 0.00 0.62 0.00 91 1009.8
20260505235451 54 335 0.0 0.0 0.00 0.62 0.00 91 1009.7
20260505235408 54 335 0.0 0.0 0.00 0.62 0.00 91 1009.7
20260505235350 54 335 0.0 0.0 0.00 0.62 0.00 91 1009.8
20260505235250 54 335 0.0 0.9 0.00 0.62 0.00 91 1009.9
20260505235149 54 336 0.0 0.9 0.00 0.62 0.00 91 1009.9
20260505235107 54 336 0.0 0.9 0.00 0.62 0.00 91 1009.9
20260505235049 54 338 0.0 0.9 0.00 0.62 0.00 91 1009.9
20260505234951 54 340 0.0 0.9 0.00 0.62 0.00 91 1010.0
20260505234849 54 341 0.0 0.9 0.00 0.62 0.00 91 1010.0
20260505234807 54 341 0.0 0.9 0.00 0.62 0.00 91 1010.0
20260505234749 54 342 0.0 0.9 0.00 0.62 0.00 91 1010.0
20260505234651 54 340 0.0 0.9 0.00 0.62 0.00 91 1010.0
20260505234551 54 338 0.0 0.9 0.00 0.62 0.00 91 1010.0
20260505234508 54 338 0.0 0.9 0.00 0.62 0.00 91 1010.0
20260505234450 54 336 0.0 0.9 0.00 0.62 0.00 91 1010.1
20260505234350 54 334 0.0 0.9 0.00 0.62 0.00 91 1010.1
20260505234250 54 332 0.0 0.9 0.00 0.62 0.00 91 1010.1
20260505234207 54 332 0.0 0.9 0.00 0.62 0.00 91 1010.1
20260505234149 54 331 0.0 0.9 0.00 0.62 0.00 91 1010.1
20260505234049 54 329 0.0 0.9 0.00 0.62 0.00 91 1010.0
20260505233949 54 323 0.0 0.9 0.00 0.62 0.00 91 1010.0
20260505233909 54 323 0.0 0.9 0.00 0.62 0.00 91 1010.0
20260505233850 54 317 0.0 0.9 0.00 0.62 0.00 91 1010.1
20260505233750 54 309 0.0 0.9 0.00 0.62 0.00 91 1010.1
20260505233650 54 309 0.0 0.9 0.00 0.62 0.00 91 1010.2
20260505233608 54 309 0.0 0.9 0.00 0.62 0.00 91 1010.2
20260505233550 54 309 0.0 0.9 0.00 0.62 0.00 91 1010.1
20260505233450 54 309 0.0 0.9 0.00 0.62 0.00 91 1010.2
20260505233349 54 309 0.0 0.9 0.00 0.62 0.00 91 1010.3
20260505233309 54 309 0.0 0.9 0.00 0.62 0.00 91 1010.3
20260505233251 53 309 0.0 0.0 0.00 0.62 0.00 91 1010.3
20260505233151 53 309 0.0 0.0 0.00 0.62 0.00 91 1010.3
20260505233051 53 310 0.0 0.9 0.00 0.62 0.00 91 1010.2
20260505233009 53 310 0.0 0.9 0.00 0.62 0.00 91 1010.2
20260505232951 53 309 0.0 0.9 0.00 0.62 0.00 91 1010.3
20260505232849 54 310 0.0 0.9 0.00 0.62 0.00 91 1010.3
20260505232749 54 310 0.0 0.9 0.00 0.62 0.00 91 1010.3
20260505232709 54 310 0.0 0.9 0.00 0.62 0.00 91 1010.3
20260505232651 54 309 0.0 1.7 0.00 0.62 0.00 91 1010.2
20260505232551 54 306 0.0 1.7 0.00 0.62 0.00 91 1010.2
20260505232451 54 304 0.0 1.7 0.00 0.62 0.00 91 1010.2
20260505232408 54 303 0.0 1.7 0.00 0.62 0.00 91 1010.1
20260505232349 54 303 0.0 1.7 0.00 0.62 0.00 91 1010.1
20260505232250 54 303 0.0 1.7 0.00 0.62 0.00 91 1010.2
20260505232150 54 301 0.0 1.7 0.00 0.62 0.00 91 1010.3
20260505232108 54 301 0.0 1.7 0.00 0.62 0.00 91 1010.3
20260505232050 54 299 0.0 1.7 0.00 0.62 0.00 91 1010.2
20260505231950 54 299 0.0 1.7 0.00 0.62 0.00 91 1010.2
20260505231851 54 299 0.0 1.7 0.00 0.62 0.00 91 1010.2
20260505231808 54 299 0.0 1.7 0.00 0.62 0.00 91 1010.2
20260505231750 54 297 0.0 1.7 0.00 0.62 0.00 91 1010.3
20260505231650 54 294 0.0 0.9 0.00 0.62 0.00 91 1010.3
20260505231550 54 298 0.0 0.9 0.00 0.62 0.00 91 1010.4
20260505231508 54 298 0.0 0.9 0.00 0.62 0.00 91 1010.4
20260505231450 54 304 0.0 0.9 0.00 0.62 0.00 91 1010.4
20260505231350 54 310 0.0 0.9 0.00 0.62 0.00 91 1010.4
20260505231250 54 322 0.0 0.9 0.00 0.62 0.00 91 1010.4
20260505231208 54 322 0.0 0.9 0.00 0.62 0.00 91 1010.4
20260505231150 54 334 0.0 1.7 0.00 0.62 0.00 91 1010.4
20260505231050 54 345 0.0 1.7 0.00 0.62 0.00 91 1010.5
20260505230950 54 347 0.0 1.7 0.00 0.62 0.00 91 1010.6
20260505230907 54 347 0.0 1.7 0.00 0.62 0.00 91 1010.6
20260505230851 54 348 0.9 2.6 0.00 0.62 0.00 91 1010.6
20260505230751 54 347 0.9 2.6 0.00 0.62 0.00 91 1010.5
20260505230651 53 344 0.9 2.6 0.00 0.62 0.00 91 1010.5
20260505230608 53 344 0.9 2.6 0.00 0.62 0.00 91 1010.5
20260505230550 53 343 0.9 2.6 0.00 0.62 0.00 91 1010.4
20260505230450 53 342 1.7 2.6 0.00 0.62 0.00 91 1010.4
20260505230350 53 342 1.7 2.6 0.00 0.62 0.00 91 1010.4
20260505230308 53 342 1.7 2.6 0.00 0.62 0.00 91 1010.4
20260505230249 53 340 1.7 2.6 0.00 0.62 0.00 91 1010.4
20260505230149 53 340 1.7 2.6 0.00 0.62 0.00 91 1010.4
20260505230049 53 338 1.7 2.6 0.00 0.62 0.00 91 1010.4
20260505230007 53 338 1.7 2.6 0.00 0.62 0.00 91 1010.4
20260505225951 53 336 1.7 2.6 0.00 0.62 0.00 91 1010.4
20260505225850 54 332 1.7 2.6 0.00 0.62 0.00 91 1010.4
20260505225750 54 331 1.7 2.6 0.00 0.62 0.00 91 1010.4
20260505225708 54 331 1.7 2.6 0.00 0.62 0.00 91 1010.4
20260505225650 54 330 0.9 2.6 0.00 0.62 0.00 91 1010.5
20260505225550 54 327 0.9 2.6 0.00 0.62 0.00 91 1010.5
20260505225450 54 325 0.9 2.6 0.00 0.62 0.00 91 1010.6
20260505225407 54 325 0.9 2.6 0.00 0.62 0.00 91 1010.6
20260505225349 54 323 0.9 1.7 0.00 0.62 0.00 91 1010.6
20260505225249 54 320 0.9 1.7 0.00 0.62 0.00 91 1010.7
20260505225151 54 319 0.9 1.7 0.00 0.62 0.00 91 1010.7
20260505225109 54 319 0.9 1.7 0.00 0.62 0.00 91 1010.7
20260505225051 54 319 0.9 0.9 0.00 0.62 0.00 91 1010.7
20260505224951 54 319 0.9 0.9 0.00 0.62 0.00 91 1010.7
20260505224851 54 319 0.9 0.9 0.00 0.62 0.00 91 1010.7
20260505224807 54 319 0.9 0.9 0.00 0.62 0.00 91 1010.7
20260505224749 54 319 0.9 0.9 0.00 0.62 0.00 91 1010.6
20260505224649 54 319 0.9 0.9 0.00 0.62 0.00 91 1010.7
20260505224549 54 319 0.9 0.9 0.00 0.62 0.00 91 1010.7
20260505224509 54 319 0.9 0.9 0.00 0.62 0.00 91 1010.7
20260505224451 54 319 0.9 0.9 0.00 0.62 0.00 91 1010.6
20260505224350 54 319 0.9 0.9 0.00 0.62 0.00 91 1010.6
20260505224250 54 320 0.0 0.9 0.00 0.62 0.00 91 1010.6
20260505224207 54 320 0.0 0.9 0.00 0.62 0.00 91 1010.6
20260505224149 54 321 0.0 0.9 0.00 0.62 0.00 91 1010.5
20260505224049 54 321 0.0 0.9 0.00 0.62 0.00 91 1010.6
20260505223949 54 322 0.0 0.9 0.00 0.62 0.00 91 1010.6
20260505223909 54 322 0.0 0.9 0.00 0.62 0.00 91 1010.5
20260505223850 54 322 0.0 0.9 0.00 0.62 0.00 91 1010.5
20260505223750 54 323 0.0 0.9 0.00 0.62 0.00 91 1010.6
20260505223650 54 323 0.0 0.9 0.00 0.62 0.00 91 1010.6
20260505223608 54 323 0.0 0.9 0.00 0.62 0.00 91 1010.6
20260505223550 54 323 0.0 0.9 0.00 0.62 0.00 91 1010.7
20260505223452 54 323 0.0 0.9 0.00 0.62 0.00 91 1010.6
20260505223350 54 323 0.0 0.9 0.00 0.62 0.00 91 1010.7
20260505223307 54 323 0.0 0.9 0.00 0.62 0.00 91 1010.7
20260505223249 54 323 0.0 0.9 0.00 0.62 0.00 91 1010.7
20260505223149 54 323 0.0 0.9 0.00 0.62 0.00 91 1010.7
20260505223049 54 323 0.0 0.9 0.00 0.62 0.00 91 1010.7
20260505223007 54 323 0.0 0.9 0.00 0.62 0.00 91 1010.7
20260505222951 54 323 0.0 0.9 0.00 0.62 0.00 91 1010.7
20260505222850 54 323 0.0 0.9 0.00 0.62 0.00 91 1010.7
20260505222750 54 323 0.0 0.0 0.00 0.62 0.00 91 1010.8
20260505222708 54 323 0.0 0.0 0.00 0.62 0.00 91 1010.8
20260505222650 54 323 0.0 0.0 0.00 0.62 0.00 91 1010.8
20260505222550 54 323 0.0 0.0 0.00 0.62 0.00 91 1010.7
20260505222450 53 323 0.0 0.0 0.00 0.62 0.00 91 1010.6
20260505222408 53 323 0.0 0.0 0.00 0.62 0.00 91 1010.6
20260505222349 53 323 0.0 0.0 0.00 0.62 0.00 91 1010.5
20260505222249 53 323 0.0 0.0 0.00 0.62 0.00 91 1010.6
20260505222149 53 323 0.0 0.0 0.00 0.62 0.00 91 1010.4
20260505222107 53 323 0.0 0.0 0.00 0.62 0.00 91 1010.4
20260505222049 53 323 0.0 0.0 0.00 0.62 0.00 91 1010.5
20260505221949 53 323 0.0 0.9 0.00 0.62 0.00 91 1010.5
20260505221850 53 323 0.0 0.9 0.00 0.62 0.00 91 1010.5
20260505221807 53 323 0.0 0.9 0.00 0.62 0.00 91 1010.5
20260505221749 53 323 0.0 0.9 0.00 0.62 0.00 91 1010.5
20260505221651 53 324 0.0 0.9 0.00 0.62 0.00 91 1010.5
20260505221551 53 324 0.0 0.9 0.00 0.62 0.00 91 1010.5
20260505221508 53 324 0.0 0.9 0.00 0.62 0.00 91 1010.5
20260505221451 53 324 0.0 0.9 0.00 0.62 0.00 91 1010.4
20260505221349 54 324 0.0 0.9 0.00 0.62 0.00 91 1010.4
20260505221251 54 324 0.0 0.9 0.00 0.62 0.00 91 1010.5
20260505221208 54 324 0.0 0.9 0.00 0.62 0.00 91 1010.5
20260505221150 54 323 0.0 0.9 0.00 0.62 0.00 91 1010.6
20260505221050 54 320 0.0 0.9 0.00 0.62 0.00 91 1010.6
20260505220950 54 316 0.9 0.9 0.00 0.62 0.00 91 1010.6
20260505220908 54 316 0.9 0.9 0.00 0.62 0.00 91 1010.6
20260505220849 54 312 0.0 0.9 0.00 0.62 0.00 91 1010.7
20260505220749 54 311 0.0 0.9 0.00 0.62 0.00 91 1010.6
20260505220649 54 309 0.0 0.9 0.00 0.62 0.00 91 1010.7
20260505220609 54 309 0.0 0.9 0.00 0.62 0.00 91 1010.7
20260505220551 54 306 0.0 0.9 0.00 0.62 0.00 91 1010.7